ATLAS D R/B, 2328

Orbit data source: Space-Track

ATLAS D R/B, 2328 is space debris in LEO originally from a launch on Thu, 14 Jul 1966 UTC launched from the Air Force Western Test Range (AFWTR). Debris objects in space refer to the collection of defunct objects orbiting the Earth. Examples of debris include non-operational satellites, rocket bodies, and fragments generated from explosions, collisions, or faulty payload assembly.

Loading next visibility...
Identifier
2328, 1966-063C
Orbit
LEO
Country
Flag of USUS
Related business
Manufacturer
ABL
Mission
Spacecraft
Bus & Motor
ALTAIR, Unknown motor
Mass
~125 kg wet, ~125 kg dry
Launch date (UTC)
1966-07-14 (59 years ago)
Launch vehicle
Unknown
Launch site
Air Force Western Test Range (AFWTR)
Object type
Payload
Rocket body
Debris
Shape & HBR
Unknown
Radar Cross Section
Medium (>0.1 m² and <1 m²)

Expand to show TLE details & history
Last TLE update: 17 hours ago

TLE from 17 hours ago
0 ATLAS D R/B
1 02328U 66063C   25287.93761309  .00000307  00000-0  66829-4 0  9993
2 02328 144.2333 284.4013 0010402 290.8937 123.1018 13.69962541966603
Epoch: 2025-10-14T22:30Z
TLE epoch observation values (Epoch: 2025-10-14T22:30:09.770Z)
Latitude
28.36883°
Longitude
-125.08229°
Altitude
1,003.555 km
Speed
7.352 km/s
True Right ascension
15h 44m 42s
True Declination
28° 13' 48"
Sunlit
Object was in daylight at epoch
Visualization orbit readout
Latitude
Unknown
Longitude
Unknown
Altitude
Unknown
Speed
Unknown
Apparent Right ascension
Unknown
Apparent Declination
Unknown
Sunlit
N/A
Visualization observer readout
Local Sidereal Time
10:00:18
Azimuth
Unknown
Elevation
Unknown
Doppler factor
Unknown
Orbital elements
Apogee altitude
1,010.299 km
Perigee altitude
994.944 km
Semi-major axis
7,380.758 km
Eccentricity
0.00104
Inclination
144.2333°
RAAN
284.4013°
Arg. of periapsis
290.8937°
True anomaly
123.20158°
Mean anomaly
123.1018°
Eccentric anomaly
123.1517°
Mean motion
3.42288 °/min
Orbital period
105.17 mins
BSTAR
0.000066829
Loading maneuver chart data...
Computing Atmospheric mass density...
Loading historical data...
Loading historical data...
Loading historical data...
Loading historical data...
Loading historical data...
Loading historical data...
Loading historical data...

Documentation

Showing up to 5 results
|